Temp
32 32 31 31 31 32 31 31 30 31 30 29 30 30 30 30 30 30 30 30 31 31 31 31 32 32 33 32 31 32 32 31 32 33 31 31 31 30 33 31 31 31
30 30 31 30 31 31 30 29 29 30 29 29 29 28 30 30 30 29 29 29 30 30 30 30 30 31 31 31 31 31 32 31 31 32 31 31 30 30 30 30 29 30
28 29 29 28 29 28 28 29 29 28 28 28 28 27 29 28 28 28 28 29 28 29 29 29 29 29 30 30 30 30 31 31 31 31 30 30 30 30 31 30 29 29
31 29 29 28 27 28 28 29 29 29 27 29 28 27 27 29 27 27 26 27 26 27 27 28 28 28 28 29 29 29 29 30 30 30 30 31 31 30 30 29 30 30
28 29 29 28 28 28 28 28 27 28 27 27 28 28 28 28 27 27 27 27 26 26 26 26 25 26 26 28 27 28 29 29 29 29 29 30 31 31 31 31 30 29
28 27 26 27 26 27 27 26 26 26 26 27 27 27 26 26 26 26 27 27 27 27 27 27 27 26 26 26 26 26 27 27 28 28 28 28 29 30 31 31 30 30
27 27 26 27 26 26 26 26 26 26 25 25 25 26 25 26 25 26 26 26 26 26 26 26 27 27 28 27 27 27 27 26 26 26 26 27 28 29 30 29 29 29
26 26 26 25 26 25 26 25 25 26 25 25 25 25 24 25 24 24 24 24 24 25 25 25 25 26 26 26 26 27 27 28 27 27 26 26 27 27 28 29 29 29
25 25 25 24 26 25 26 25 25 25 25 25 26 25 24 24 25 25 25 24 24 25 24 25 25 25 25 25 25 25 25 26 27 26 26 26 26 27 27 28 28 28
27 25 26 25 25 25 24 24 24 25 24 25 25 24 25 25 24 24 24 24 24 24 24 24 25 25 24 24 24 25 25 25 26 26 26 26 26 26 27 27 27 27
27 25 25 25 25 25 25 24 24 24 24 23 24 24 24 24 24 23 23 23 25 24 24 24 24 24 24 24 25 24 25 25 25 25 26 26 26 27 28 27 27 27
26 26 26 25 25 24 24 24 24 24 23 24 23 24 24 24 24 25 25 24 24 24 24 24 24 24 24 24 24 24 24 25 25 25 26 26 26 27 27 27 27 27
25 26 26 25 25 24 24 24 23 23 23 24 24 23 23 24 24 24 24 24 24 24 24 24 24 24 24 24 24 24 24 24 25 25 25 26 26 27 27 27 27 27
25 25 25 25 24 23 23 23 23 23 23 23 22 23 23 23 23 23 23 23 23 23 24 24 23 23 23 24 24 24 24 24 25 24 25 25 25 26 26 26 27 27
24 25 25 24 23 23 22 22 22 21 21 21 21 21 22 22 22 22 21 21 22 22 22 23 23 23 24 24 24 24 25 24 24 24 24 23 23 24 25 25 26 26
24 23 23 23 22 21 21 20 20 19 19 19 19 19 19 19 19 19 19 19 19 20 20 21 21 22 23 26 27 25 24 24 23 23 22 22 22 22 23 23 24 25
22 23 21 20 20 20 16 16 18 17 16 16 16 16 16 17 17 17 17 18 17 17 17 18 19 20 23 25 26 27 24 23 22 21 22 22 21 21 20 21 22 23
20 19 18 17 16 14 14 12 13 13 13 13 13 14 14 14 14 15 15 16 16 15 15 15 16 19 22 23 24 25 25 23 21 20 20 20 20 20 20 21 21 22
17 15 14 13 13 12 11 11 11 12 11 11 11 12 12 12 13 13 12 13 13 13 12 13 14 18 20 22 23 24 24 23 20 20 19 19 19 20 19 19 20 19
15 12 12 11 11 11 11 11 10 10 10 10 10 11 10 10 10 10 10 10 11 11 11 11 12 15 19 21 22 22 23 22 19 19 18 18 18 18 18 17 17 17
13 11 11 11 9 9 9 9 9 8 9 9 9 9 8 8 8 7 8 8 8 9 9 9 10 16 19 20 21 21 22 22 18 17 17 16 16 16 16 16 16 17
11 9 8 8 9 8 7 8 7 7 7 7 7 7 7 7 7 7 6 6 7 7 7 7 9 15 17 19 20 20 22 17 16 15 14 14 14 15 16 16 17 17
11 9 7 7 6 6 5 5 6 6 5 5 4 5 5 5 5 5 5 5 5 5 5 6 6 11 16 18 19 20 18 14 14 14 13 13 13 14 15 16 17 17
9 6 6 5 3 3 4 6 4 4 3 3 3 3 3 3 4 4 4 4 4 4 5 4 5 10 16 17 18 19 18 14 14 13 12 12 13 15 15 16 17 19
6 5 4 3 2 3 2 2 2 2 3 2 2 2 2 3 3 3 3 3 3 4 8 8 5 8 13 15 17 18 16 14 14 13 12 12 12 13 14 15 15 17
4 3 2 1 2 2 1 1 2 1 1 2 2 1 1 2 2 2 1 2 3 3 3 4 4 4 7 15 16 17 19 16 15 13 11 11 12 12 12 13 14 15
MSLP
1027.95 1027.95 1027.95 1027.99 1027.99 1027.87 1027.63 1027.39 1027.35 1027.27 1027.31 1027.31 1027.31 1027.39 1027.35 1027.27 1027.07 1026.99 1026.95 1026.87 1026.87 1026.79 1026.71 1026.63 1026.47 1026.31 1026.15 1026.03 1025.99 1025.83 1025.67 1025.55 1025.39 1025.19 1024.99 1024.79 1024.59 1024.51 1024.31 1024.27 1024.23 1024.27
1028.15 1028.19 1028.19 1028.23 1028.15 1028.07 1027.87 1027.67 1027.51 1027.43 1027.43 1027.51 1027.55 1027.59 1027.47 1027.27 1027.19 1027.15 1027.07 1027.03 1026.99 1026.99 1026.95 1026.83 1026.71 1026.59 1026.43 1026.31 1026.15 1025.99 1025.79 1025.67 1025.47 1025.43 1025.15 1024.83 1024.75 1024.59 1024.27 1024.23 1024.15 1024.11
1028.27 1028.19 1028.19 1028.15 1028.11 1027.91 1027.75 1027.67 1027.59 1027.55 1027.55 1027.71 1027.87 1027.83 1027.71 1027.51 1027.39 1027.35 1027.35 1027.31 1027.23 1027.11 1027.03 1026.99 1026.91 1026.79 1026.71 1026.55 1026.43 1026.27 1026.03 1025.79 1025.55 1025.43 1025.23 1024.99 1024.83 1024.67 1024.47 1024.39 1024.23 1024.03
1028.35 1028.47 1028.35 1028.19 1028.07 1027.87 1027.83 1027.63 1027.63 1027.71 1027.87 1027.91 1027.91 1027.91 1027.67 1027.47 1027.39 1027.39 1027.39 1027.39 1027.39 1027.35 1027.27 1027.19 1027.11 1026.99 1026.87 1026.71 1026.55 1026.39 1026.23 1026.07 1025.91 1025.63 1025.27 1024.95 1024.83 1024.71 1024.55 1024.43 1024.27 1024.11
1028.23 1028.27 1028.27 1028.23 1028.11 1028.03 1027.95 1027.83 1027.91 1028.03 1028.03 1028.03 1027.79 1027.51 1027.31 1027.23 1027.27 1027.31 1027.31 1027.35 1027.35 1027.35 1027.35 1027.31 1027.27 1027.19 1027.07 1026.95 1026.83 1026.63 1026.35 1026.19 1025.91 1025.71 1025.47 1025.19 1024.91 1024.79 1024.51 1024.35 1024.15 1023.95
1028.47 1028.39 1028.31 1028.23 1028.31 1028.23 1028.27 1028.31 1028.35 1028.27 1028.15 1027.87 1027.75 1027.67 1027.63 1027.63 1027.63 1027.59 1027.55 1027.43 1027.39 1027.39 1027.23 1027.15 1027.11 1027.11 1027.07 1027.03 1026.95 1026.83 1026.63 1026.35 1026.07 1025.83 1025.59 1025.35 1025.03 1024.79 1024.67 1024.43 1024.15 1023.83
1028.31 1028.39 1028.39 1028.51 1028.47 1028.47 1028.35 1028.35 1028.27 1028.15 1028.07 1028.07 1027.91 1027.79 1027.87 1027.79 1027.79 1027.79 1027.75 1027.71 1027.59 1027.47 1027.43 1027.31 1027.11 1026.95 1026.95 1026.95 1026.83 1026.67 1026.55 1026.39 1026.15 1025.95 1025.75 1025.47 1025.23 1024.75 1024.55 1024.43 1024.19 1023.87
1028.31 1028.39 1028.35 1028.35 1028.23 1028.27 1028.19 1028.19 1028.15 1028.07 1028.11 1028.03 1027.99 1027.99 1027.99 1027.91 1027.91 1027.91 1027.87 1027.83 1027.79 1027.67 1027.59 1027.51 1027.43 1027.35 1027.27 1027.11 1026.91 1026.63 1026.31 1026.15 1026.07 1025.91 1025.71 1025.43 1025.15 1024.87 1024.51 1024.31 1024.03 1023.79
1028.11 1028.11 1028.15 1028.11 1028.07 1028.11 1028.11 1028.11 1028.15 1028.11 1028.11 1028.03 1027.95 1027.95 1027.99 1027.95 1027.91 1027.87 1027.87 1027.83 1027.79 1027.71 1027.63 1027.55 1027.47 1027.47 1027.43 1027.27 1027.07 1026.91 1026.67 1026.31 1026.11 1025.87 1025.59 1025.27 1024.91 1024.59 1024.43 1024.23 1023.95 1023.63
1027.91 1028.07 1028.11 1028.15 1028.11 1028.23 1028.23 1028.27 1028.27 1028.23 1028.19 1028.15 1028.11 1028.07 1027.99 1027.99 1027.99 1027.91 1027.87 1027.79 1027.75 1027.63 1027.55 1027.47 1027.43 1027.43 1027.35 1027.23 1027.11 1026.91 1026.71 1026.43 1026.15 1025.91 1025.59 1025.31 1024.99 1024.59 1024.19 1023.95 1023.75 1023.43
1027.95 1028.07 1028.11 1028.11 1028.15 1028.23 1028.27 1028.31 1028.31 1028.27 1028.27 1028.19 1028.15 1028.11 1028.07 1027.99 1027.95 1027.95 1027.83 1027.79 1027.71 1027.59 1027.47 1027.43 1027.43 1027.35 1027.19 1027.03 1026.95 1026.83 1026.63 1026.35 1026.03 1025.79 1025.47 1025.15 1024.87 1024.51 1024.19 1023.99 1023.67 1023.31
1027.83 1027.95 1027.99 1028.07 1028.11 1028.15 1028.19 1028.23 1028.27 1028.23 1028.23 1028.23 1028.19 1028.11 1028.07 1028.03 1027.95 1027.91 1027.83 1027.67 1027.63 1027.55 1027.47 1027.39 1027.31 1027.23 1027.07 1026.91 1026.79 1026.63 1026.35 1026.07 1025.79 1025.47 1025.15 1024.87 1024.55 1024.27 1024.03 1023.79 1023.55 1023.15
1027.83 1027.95 1028.03 1028.11 1028.15 1028.19 1028.23 1028.23 1028.23 1028.31 1028.31 1028.31 1028.27 1028.27 1028.19 1028.03 1027.99 1027.95 1027.87 1027.79 1027.59 1027.47 1027.39 1027.27 1027.15 1027.07 1026.91 1026.79 1026.63 1026.43 1026.11 1025.79 1025.43 1025.07 1024.79 1024.47 1024.11 1023.87 1023.59 1023.39 1023.15 1022.91
1027.83 1027.99 1028.07 1028.15 1028.23 1028.31 1028.35 1028.39 1028.43 1028.43 1028.51 1028.47 1028.43 1028.39 1028.31 1028.27 1028.15 1028.03 1027.87 1027.79 1027.63 1027.47 1027.35 1027.23 1027.07 1026.91 1026.79 1026.67 1026.47 1026.15 1025.79 1025.43 1025.11 1024.79 1024.39 1024.03 1023.75 1023.47 1023.23 1022.99 1022.79 1022.55
1027.79 1027.95 1028.11 1028.27 1028.43 1028.51 1028.55 1028.63 1028.67 1028.67 1028.67 1028.63 1028.55 1028.55 1028.47 1028.43 1028.35 1028.19 1027.95 1027.67 1027.51 1027.47 1027.31 1027.19 1027.07 1026.87 1026.75 1026.59 1026.23 1025.79 1025.55 1025.23 1024.87 1024.55 1024.27 1023.91 1023.43 1023.07 1022.79 1022.59 1022.43 1022.23
1027.91 1028.07 1028.23 1028.39 1028.51 1028.59 1028.71 1028.75 1028.79 1028.75 1028.71 1028.67 1028.63 1028.63 1028.63 1028.51 1028.43 1028.35 1028.15 1027.87 1027.55 1027.35 1027.31 1027.23 1027.07 1026.91 1026.79 1026.51 1026.23 1025.91 1025.47 1025.11 1024.71 1024.35 1024.07 1023.75 1023.31 1022.83 1022.43 1022.27 1022.15 1021.95
1028.07 1028.23 1028.43 1028.47 1028.67 1028.75 1028.83 1028.83 1028.79 1028.75 1028.67 1028.55 1028.55 1028.55 1028.55 1028.47 1028.47 1028.39 1028.23 1028.07 1027.87 1027.63 1027.43 1027.31 1027.19 1027.03 1026.71 1026.39 1026.11 1025.79 1025.59 1025.15 1024.67 1024.15 1023.87 1023.51 1023.15 1022.83 1022.39 1021.91 1021.67 1021.59
1028.15 1028.35 1028.43 1028.63 1028.83 1028.91 1028.99 1029.03 1028.99 1028.87 1028.79 1028.75 1028.71 1028.55 1028.51 1028.55 1028.51 1028.39 1028.35 1028.19 1027.99 1027.83 1027.75 1027.55 1027.31 1027.15 1026.79 1026.43 1026.07 1025.71 1025.55 1025.19 1024.67 1024.19 1023.75 1023.35 1023.07 1022.79 1022.35 1021.95 1021.51 1021.19
1028.19 1028.27 1028.43 1028.71 1028.95 1029.11 1029.11 1029.11 1029.03 1028.95 1028.91 1028.91 1028.87 1028.87 1028.75 1028.67 1028.63 1028.59 1028.47 1028.31 1028.15 1027.91 1027.71 1027.59 1027.43 1027.19 1026.87 1026.35 1025.95 1025.63 1025.35 1025.11 1024.67 1024.27 1023.91 1023.35 1023.03 1022.79 1022.43 1022.07 1021.75 1021.47
1028.15 1028.23 1028.31 1028.71 1028.99 1029.07 1029.11 1029.03 1029.03 1029.03 1029.15 1029.15 1029.07 1028.95 1028.95 1028.87 1028.79 1028.71 1028.59 1028.43 1028.31 1028.11 1027.75 1027.51 1027.39 1027.07 1026.59 1026.07 1025.71 1025.43 1025.19 1024.91 1024.47 1024.07 1023.75 1023.39 1023.15 1022.91 1022.63 1022.39 1022.15 1021.87
1028.19 1028.35 1028.51 1028.83 1029.03 1029.11 1029.19 1029.19 1029.19 1029.23 1029.19 1029.19 1029.19 1029.19 1029.11 1029.03 1028.87 1028.71 1028.59 1028.55 1028.35 1028.19 1027.87 1027.43 1027.27 1026.83 1026.27 1025.87 1025.51 1025.23 1024.87 1024.55 1024.23 1023.95 1023.63 1023.35 1023.19 1023.07 1022.79 1022.43 1022.11 1021.79
1028.27 1028.43 1028.67 1028.99 1029.11 1029.23 1029.27 1029.27 1029.35 1029.47 1029.43 1029.35 1029.35 1029.23 1029.19 1029.11 1028.91 1028.91 1028.67 1028.51 1028.43 1028.23 1027.87 1027.39 1027.07 1026.79 1026.23 1025.75 1025.39 1025.03 1024.63 1024.35 1024.19 1023.95 1023.59 1023.27 1022.95 1022.75 1022.47 1022.15 1021.87 1021.59
1028.51 1028.67 1028.79 1029.03 1029.27 1029.27 1029.35 1029.47 1029.51 1029.55 1029.63 1029.67 1029.55 1029.43 1029.31 1029.15 1029.03 1028.87 1028.71 1028.51 1028.27 1028.19 1027.91 1027.27 1026.91 1026.75 1026.19 1025.63 1025.23 1024.87 1024.59 1024.35 1023.99 1023.63 1023.27 1023.03 1022.67 1022.39 1022.03 1021.71 1021.43 1021.15
1028.75 1028.95 1029.07 1029.31 1029.47 1029.51 1029.59 1029.71 1029.75 1029.79 1029.87 1029.79 1029.79 1029.51 1029.31 1029.23 1029.03 1028.79 1028.59 1028.51 1028.27 1027.99 1027.91 1027.31 1026.47 1026.31 1026.03 1025.47 1025.11 1024.79 1024.47 1023.99 1023.63 1023.31 1022.91 1022.63 1022.15 1021.83 1021.63 1021.23 1020.99 1020.75
1029.03 1029.23 1029.47 1029.59 1029.67 1029.75 1029.83 1029.87 1029.87 1029.83 1029.79 1029.79 1029.79 1029.63 1029.35 1029.15 1028.99 1028.79 1028.43 1028.27 1028.15 1027.87 1027.47 1027.11 1026.51 1026.11 1025.91 1025.43 1024.95 1024.51 1024.11 1023.63 1023.19 1022.79 1022.35 1021.99 1021.71 1021.27 1021.15 1020.95 1020.51 1020.35
1029.23 1029.43 1029.67 1029.79 1029.83 1029.83 1029.87 1029.91 1029.83 1029.83 1029.75 1029.67 1029.59 1029.59 1029.31 1029.11 1028.91 1028.67 1028.35 1027.99 1027.87 1027.63 1027.35 1027.11 1026.67 1025.99 1025.83 1025.15 1024.59 1024.11 1023.63 1023.15 1022.67 1022.39 1021.91 1021.47 1021.15 1020.83 1020.35 1019.99 1019.75 1019.31
Wind_Speed
5 4 5 5 5 4 4 5 5 6 6 6 6 5 6 4 5 6 6 6 6 6 7 7 6 7 7 6 6 5 5 5 4 5 5 4 4 3 4 4 4 3
4 3 3 3 3 3 3 4 4 5 5 5 5 4 5 6 6 6 7 7 6 7 6 7 7 6 7 7 7 7 6 5 6 3 5 6 4 4 5 4 4 4
4 4 4 4 4 4 4 4 4 4 5 3 3 3 4 3 5 5 5 5 6 7 7 7 6 6 6 6 6 7 7 8 8 6 5 5 5 5 5 4 4 4
4 3 4 4 4 4 4 5 5 5 3 4 4 2 2 3 4 4 4 4 4 5 5 5 6 6 6 7 7 7 6 6 6 6 7 7 6 5 6 4 5 5
4 4 4 4 4 5 5 5 5 5 5 4 4 6 7 8 8 7 6 6 4 5 4 4 4 4 4 5 5 7 7 8 7 7 7 8 7 6 7 6 6 6
2 2 3 4 4 4 4 3 2 3 4 5 5 5 5 5 6 6 7 8 7 7 7 7 6 4 4 5 4 4 5 6 7 7 8 8 9 7 6 7 8 9
2 2 1 1 2 1 3 2 3 3 3 3 4 5 4 5 5 5 6 6 7 7 8 9 9 10 8 7 7 7 6 5 5 5 6 7 7 10 7 6 7 8
2 1 1 1 2 2 4 3 4 4 3 4 4 4 3 4 4 4 4 4 5 6 6 6 6 7 8 8 9 11 11 7 8 8 8 8 6 8 8 6 8 9
1 1 2 3 4 3 4 4 4 4 4 4 5 4 4 4 4 5 5 5 5 5 5 5 5 6 5 5 6 7 9 10 9 10 10 11 11 11 9 7 8 9
1 1 2 2 3 2 3 3 3 4 4 4 4 4 5 4 4 4 4 5 5 6 5 5 6 5 5 4 5 6 8 9 9 9 9 10 10 11 12 11 10 11
1 0 1 1 1 1 2 2 3 3 3 4 4 4 4 4 4 3 4 4 6 6 7 6 6 6 6 6 5 5 7 8 8 8 9 10 10 11 10 11 12 12
1 1 1 1 1 2 3 3 3 3 4 4 4 5 5 4 5 5 5 7 6 6 6 6 6 5 6 7 7 7 7 8 8 9 9 10 10 11 10 10 10 12
1 1 0 1 2 3 3 3 4 4 4 5 4 4 6 7 6 6 6 6 7 7 7 7 7 6 7 7 6 6 8 9 10 10 10 10 10 11 11 11 11 11
1 1 1 2 2 3 3 3 3 4 4 4 4 5 6 6 7 8 7 6 7 7 7 7 8 7 6 6 7 8 9 9 10 10 11 11 10 11 11 11 11 11
2 2 2 2 1 1 2 3 3 3 3 4 4 5 5 5 6 6 9 9 8 7 8 7 7 8 6 7 10 11 9 11 11 12 12 12 12 11 11 10 10 10
1 1 1 2 2 3 3 3 3 4 4 4 4 4 4 5 5 6 7 8 10 10 8 8 8 6 10 19 17 12 12 11 11 11 11 11 12 13 13 11 11 11
2 1 1 2 2 3 3 4 6 5 5 6 5 6 6 6 6 7 6 7 8 9 10 9 8 8 19 19 20 22 16 13 12 13 13 13 10 12 11 14 11 11
2 2 2 2 3 3 3 4 4 5 5 6 6 8 8 6 7 6 7 7 8 8 8 8 9 13 19 20 21 22 20 15 14 12 13 14 14 13 13 13 14 14
2 2 1 2 2 3 3 4 4 5 5 6 7 6 6 6 8 8 8 7 8 10 10 9 8 14 18 21 21 22 22 20 14 14 14 15 15 16 16 15 15 15
2 2 2 2 3 4 4 5 5 6 5 4 5 6 6 7 6 7 7 7 8 9 10 10 9 14 20 21 22 23 23 21 14 15 15 16 16 15 15 15 15 15
3 2 2 3 3 4 4 5 5 6 6 6 6 6 8 8 8 9 7 6 7 8 10 11 9 18 21 23 24 24 24 21 15 14 14 14 14 14 15 15 15 14
3 3 3 3 4 4 4 6 5 5 7 7 6 6 5 6 7 5 8 8 7 8 10 12 10 18 22 23 25 24 26 16 13 14 14 14 14 14 14 14 14 14
3 3 3 4 4 5 5 5 6 6 5 4 7 7 7 7 7 7 7 8 9 8 10 12 10 14 21 23 24 26 20 12 13 12 12 14 15 14 14 14 14 14
4 2 3 4 4 4 5 5 4 4 4 4 6 8 9 7 7 8 7 6 8 10 8 12 13 15 22 24 25 24 21 14 12 11 13 13 14 14 13 13 15 24
2 2 2 3 4 4 4 5 5 5 5 4 5 6 8 7 7 8 8 7 7 9 14 15 13 15 21 23 25 24 19 12 11 10 11 13 13 13 14 15 16 16
2 2 3 3 5 5 4 4 4 5 5 5 6 5 8 7 7 8 9 9 7 9 9 9 12 13 14 25 24 24 24 15 11 11 12 14 13 12 13 12 13 12
Wind_Direction
52 48 55 51 49 53 52 54 43 56 49 40 43 21 24 3 9 14 10 12 11 11 4 3 2 3 2 3 4 359 7 359 358 349 353 356 355 353 333 323 318 296
41 47 51 68 59 51 52 64 58 61 49 45 34 27 14 19 12 17 10 7 7 6 1 1 0 360 358 359 354 355 350 358 351 345 346 344 334 331 318 309 290 287
40 41 41 42 43 34 39 43 55 47 51 42 45 34 21 24 14 13 12 7 1 355 357 356 353 354 352 352 351 350 347 345 346 338 339 329 324 327 310 308 303 292
51 55 46 34 30 27 14 32 23 29 23 23 18 7 31 19 25 12 10 6 4 352 346 348 346 344 346 345 345 345 339 335 330 334 334 329 328 320 310 305 297 301
53 44 40 41 32 32 27 30 19 13 15 358 355 5 12 9 7 5 2 359 359 348 343 337 332 332 333 338 341 338 336 333 331 336 332 324 319 325 315 317 308 301
57 69 48 54 40 41 36 33 5 5 3 9 360 0 9 6 5 358 354 350 350 348 343 343 343 344 344 338 333 325 316 323 317 327 326 323 316 314 311 311 308 304
91 89 84 101 83 60 51 27 14 11 11 358 357 1 4 360 358 351 345 344 340 343 343 340 341 341 347 345 343 335 333 318 313 316 310 305 304 307 310 305 297 291
177 172 137 73 59 38 29 17 8 7 357 2 10 336 2 345 342 337 335 329 333 328 329 329 328 332 336 343 338 336 331 334 329 323 315 308 302 297 298 298 295 294
129 62 40 42 34 12 15 0 358 351 356 3 347 341 343 344 335 334 330 327 324 319 317 320 321 323 328 329 323 322 320 321 323 322 319 317 317 307 302 298 293 288
67 28 48 34 33 2 5 341 340 337 337 346 329 330 330 326 331 319 323 325 318 316 317 315 320 319 317 311 306 310 310 307 308 307 305 304 301 304 308 309 302 297
151 118 77 20 16 5 354 336 333 326 330 329 326 327 322 322 318 317 313 317 319 316 316 316 315 314 311 307 304 297 293 294 293 292 290 289 289 290 293 297 297 294
173 99 73 11 5 5 1 351 346 353 347 342 342 334 332 329 325 333 331 322 322 315 311 311 312 311 304 304 305 299 290 285 284 283 283 281 283 282 282 281 283 287
150 119 80 15 7 0 359 3 3 356 356 348 342 338 332 331 333 330 329 322 318 319 318 318 319 313 311 308 305 296 291 290 289 285 280 280 278 278 277 276 275 278
122 117 57 19 6 9 5 4 3 357 354 339 340 337 333 333 332 330 324 324 317 319 318 321 317 317 315 316 310 305 301 296 293 293 292 289 285 281 279 277 276 275
48 29 33 16 7 12 18 12 359 347 336 334 327 326 327 327 327 328 325 322 320 318 323 323 320 320 325 324 318 312 309 305 303 299 297 295 291 284 278 275 273 273
66 35 13 5 18 10 18 359 349 340 332 331 328 324 326 324 329 330 322 320 322 323 325 325 320 320 321 320 318 316 314 310 303 297 295 294 294 294 291 285 280 280
104 71 45 33 20 13 359 356 345 340 337 334 335 337 333 335 332 326 328 325 322 321 323 323 320 320 319 319 317 316 313 307 302 299 297 291 285 288 291 295 290 283
110 98 67 37 21 4 347 340 335 337 337 335 334 335 335 335 331 329 328 324 320 318 315 315 315 317 317 315 314 313 311 307 303 300 300 297 297 296 296 297 299 302
99 84 69 36 6 348 333 336 340 337 339 338 333 329 326 329 328 327 322 325 320 318 315 312 308 314 313 311 311 311 309 307 299 296 294 294 296 298 298 299 303 302
88 63 41 9 352 347 345 341 343 337 332 326 320 328 327 322 322 319 319 320 320 315 309 309 306 311 311 312 311 310 308 305 297 296 293 292 294 296 297 298 299 298
77 59 27 357 349 345 343 339 335 329 332 331 330 326 326 321 322 319 316 315 313 310 306 305 306 310 312 312 310 309 307 305 299 297 295 293 293 293 291 292 293 293
61 37 7 352 345 341 339 331 330 329 325 327 321 315 307 308 303 304 306 308 307 306 303 299 302 310 309 309 307 307 307 305 301 296 293 291 291 291 292 291 292 290
50 23 354 345 341 335 327 323 324 321 319 323 311 308 307 306 301 301 303 303 304 302 300 297 297 305 304 305 306 306 307 299 296 294 293 293 290 291 290 289 289 289
42 24 348 333 329 320 312 308 309 301 298 307 299 306 300 295 298 298 293 294 296 297 295 296 296 300 303 304 304 304 301 297 294 286 287 289 291 287 288 288 289 291
38 14 337 318 310 299 299 298 299 294 295 298 284 284 285 293 293 291 291 287 282 285 294 295 293 297 300 301 300 300 300 291 287 284 283 286 289 290 288 287 285 282
17 352 318 304 293 294 290 284 290 296 291 292 288 281 287 288 286 285 288 287 284 284 284 282 287 289 293 297 298 297 298 296 288 288 288 287 281 276 283 272 263 260